EST,Max TemperatureF,Mean TemperatureF,Min TemperatureF,Max Dew PointF,MeanDew PointF,Min DewpointF,Max Humidity, Mean Humidity, Min Humidity, Max Sea Level PressureIn, Mean Sea Level PressureIn, Min Sea Level PressureIn, Max VisibilityMiles, Mean VisibilityMiles, Min VisibilityMiles, Max Wind SpeedMPH, Mean Wind SpeedMPH, Max Gust SpeedMPH,PrecipitationIn, CloudCover, Events, WindDirDegrees
2013-2-1,19,14,10,12,8,0,79,68,58,30.30,30.15,29.87,10,6,0,20,13,24,0.00,7,Snow,257
2013-2-2,24,20,15,19,13,5,80,74,64,30.24,30.03,29.93,10,4,0,16,11,22,0.00,8,Snow,233
2013-2-3,24,14,3,18,10,-1,80,71,52,30.03,29.92,29.84,10,6,0,18,7,25,0.00,7,Snow,259
2013-2-4,25,22,18,19,15,10,86,76,68,30.04,29.95,29.87,10,4,1,7,3,,0.02,8,Snow,102
2013-2-5,30,22,15,25,18,10,88,78,66,29.96,29.89,29.82,10,5,0,17,5,22,0.00,7,Snow,213
2013-2-6,30,20,9,22,15,6,88,68,54,30.32,30.21,29.99,10,9,5,14,8,,0.04,2,Snow,236
2013-2-7,39,33,27,27,23,18,72,67,58,30.30,30.12,29.87,10,9,4,16,7,,0.00,5,Rain,97
2013-2-8,33,26,17,28,23,11,87,75,59,30.36,29.97,29.76,9,4,1,28,14,37,0.00,7,Rain-Snow,354
2013-2-9,30,20,10,18,14,6,85,74,54,30.47,30.39,30.31,10,9,6,10,5,,0.21,0,Snow,137
2013-2-10,39,28,18,34,24,13,85,74,57,30.28,30.04,29.70,10,8,2,12,5,20,0.10,5,Rain,108
2013-2-11,48,42,34,43,30,23,83,66,55,29.88,29.68,29.56,10,10,10,31,20,45,0.00,8,,235
2013-2-12,36,33,30,24,22,19,67,62,56,30.06,29.98,29.91,10,10,10,22,14,26,0.00,8,,267
2013-2-13,39,34,28,25,22,19,82,67,54,29.94,29.83,29.75,10,9,5,12,6,,0.00,5,,220
2013-2-14,42,35,28,34,28,23,82,71,57,29.85,29.76,29.69,10,7,4,25,11,33,0.00,6,Rain,223
2013-2-15,37,32,24,26,16,10,69,55,43,30.13,30.02,29.87,10,10,10,20,13,24,0.00,7,,295
2013-2-16,28,23,18,20,15,9,75,69,55,30.11,30.03,29.97,10,6,0,15,6,17,0.00,6,Snow,291
2013-2-17,26,18,10,14,7,3,81,61,41,30.23,30.15,30.04,10,8,1,14,8,,0.00,3,Snow,317
2013-2-18,50,34,17,34,20,7,71,57,40,30.23,29.96,29.62,10,10,10,16,9,,0.00,3,,152
2013-2-19,48,34,19,40,21,10,93,74,58,29.95,29.70,29.43,10,6,1,29,22,40,0.13,8,Rain-Snow,241
2013-2-20,25,22,19,14,10,5,68,61,51,30.25,30.11,29.94,10,9,1,22,16,32,0.00,8,Snow,292
2013-2-21,28,26,23,16,13,11,72,62,51,30.39,30.32,30.26,10,10,4,13,8,,0.00,6,Snow,36
2013-2-22,36,30,24,32,25,16,89,81,69,30.26,29.98,29.89,10,3,0,16,11,26,0.11,8,Fog-Snow,123
2013-2-23,36,30,24,30,22,15,82,65,56,29.94,29.90,29.88,10,10,7,17,11,23,0.06,7,,228
2013-2-24,37,29,21,25,21,16,81,69,57,30.16,30.04,29.92,10,8,3,16,8,,0.00,5,Snow,260
2013-2-25,42,30,19,26,21,14,85,67,47,30.24,30.18,30.11,10,8,4,8,3,,0.00,0,,121
2013-2-26,37,32,28,31,28,19,85,76,59,30.10,29.71,29.50,10,4,0,24,15,32,0.61,6,Rain-Snow,69
2013-2-27,37,36,35,34,31,30,93,84,75,29.59,29.52,29.44,10,4,0,15,10,23,0.59,8,Fog-Rain-Snow,182
2013-2-28,39,36,32,32,30,24,87,77,65,29.96,29.68,29.55,10,7,2,23,10,28,0.03,8,Rain-Snow,323